Waarnemingen

Advertentie
Mijn weer
Biarritz, Frankrijk (7602): temperatuur & dauwpunt: 08.12.2018 11:00:00 - 14.12.2018 11:00:00 (CET)Biarritz, Frankrijk (7602): temperatuur 5cm: 08.12.2018 11:00:00 - 14.12.2018 11:00:00 (CET)Biarritz, Frankrijk (7602): temperatuur -20cm & temperatuur -100cm: 08.12.2018 11:00:00 - 14.12.2018 11:00:00 (CET)Biarritz, Frankrijk (7602): windsnelheid & windstoten: 08.12.2018 11:00:00 - 14.12.2018 11:00:00 (CET)Biarritz, Frankrijk (7602): windrichting: 08.12.2018 11:00:00 - 14.12.2018 11:00:00 (CET)Biarritz, Frankrijk (7602): luchtdruk: 08.12.2018 11:00:00 - 14.12.2018 11:00:00 (CET)Biarritz, Frankrijk (7602): zicht: 08.12.2018 11:00:00 - 14.12.2018 11:00:00 (CET)Biarritz, Frankrijk (7602): Zonneschijnduur: 08.12.2018 11:00:00 - 14.12.2018 11:00:00 (CET)Biarritz, Frankrijk (7602): neerslag: 08.12.2018 11:00:00 - 14.12.2018 11:00:00 (CET)
Datum & Tijd tt [°C] td [°C] tt 5cm [°C] tt -20cm [°C] tt -100cm [°C] ff [km/u] ff [kn] fx [km/u] fx [kn] dd ppp [hPa] vv [km] sd [min] rr [mm]
14.12.2018 11:00:00 11,8 9,9 10,7 11,3 13,3 15 8 24 13 WNW 1020,1 19 0 0,0
14.12.2018 10:00:00 11,1 9,0 9,8 11,3 13,2 8 4 37 20 NNW 1019,3 15 1 0,2
14.12.2018 09:00:00 11,9 9,5 10,8 11,3 13,3 25 13 50 27 NW 1018,1 20 0 0,0
14.12.2018 08:00:00 11,5 9,6 10,6 11,3 13,3 28 15 50 27 WNW 1017,2 18 0 0,0
14.12.2018 07:00:00 11,7 9,8 10,0 11,3 13,3 26 14 44 24 WNW 1016,4 17 0 0,0
14.12.2018 06:00:00 11,5 9,7 9,9 11,3 13,3 27 14 49 26 WNW 1015,3 15 0 0,2
14.12.2018 05:00:00 10,9 9,3 9,8 11,3 13,3 27 15 50 27 WNW 1015,2 14 0 0,2
14.12.2018 04:00:00 11,9 9,6 9,7 11,3 13,3 32 17 61 33 WNW 1014,7 19 0 0,4
14.12.2018 03:00:00 12,3 9,3 11,4 11,3 13,3 31 17 55 30 WNW 1014,5 17 0 0,0
14.12.2018 02:00:00 12,2 9,4 10,9 11,3 13,3 36 20 60 32 WNW 1014,3 18 0 0,0
14.12.2018 01:00:00 12,1 9,3 10,6 11,3 13,3 33 18 56 31 WNW 1013,9 19 0 0,0
14.12.2018 00:00:00 11,9 9,6 9,6 11,3 13,3 26 14 50 27 NW 1013,4 19 0 0,2
13.12.2018 23:00:00 12,1 9,5 10,8 11,3 13,3 30 16 53 28 WNW 1012,8 18 0 0,0
13.12.2018 22:00:00 12,2 9,8 10,1 11,3 13,3 28 15 50 27 NW 1012,1 16 0 0,0
13.12.2018 21:00:00 12,4 9,4 10,3 11,3 13,3 27 15 52 28 NW 1011,4 19 0 0,3
13.12.2018 20:00:00 11,7 9,6 9,5 11,3 13,3 24 13 53 29 NW 1010,6 9 0 0,4
13.12.2018 19:00:00 11,5 9,9 9,5 11,3 13,3 31 17 56 30 WNW 1009,9 12 0 1,0
13.12.2018 18:00:00 11,0 8,6 9,1 11,3 13,3 26 14 58 31 WNW 1009,4 10 0 0,6
13.12.2018 17:00:00 10,9 9,0 9,5 11,3 13,3 29 16 51 28 WNW 1008,4 5 0 2,2
13.12.2018 16:00:00 10,7 9,6 9,4 11,3 13,3 35 19 59 32 WNW 1007,3 2,4 0 4,4
13.12.2018 15:00:00 10,4 9,9 9,6 11,4 13,3 20 11 48 26 W 1006,5 3,5 0 5,7
13.12.2018 14:00:00 10,8 10,0 10,2 11,3 13,3 27 15 59 32 W 1006,1 3,3 0 5,0
13.12.2018 13:00:00 10,9 10,0 10,1 11,3 13,3 40 21 68 37 W 1006,0 3,4 0 3,2
13.12.2018 12:00:00 11,2 10,6 10,1 11,3 13,3 18 10 51 27 WZW 1006,1 1,4 0 5,7
13.12.2018 11:00:00 11,5 9,4 10,1 11,3 13,3 5 3 13 7 ZW 1006,0 2,9 0 0,6
13.12.2018 10:00:00 11,4 8,4 10,4 11,3 13,3 7 4 16 8 Z 1005,2 49 0 0,0
13.12.2018 09:00:00 10,8 8,7 9,2 11,3 13,3 6 4 15 8 ZO 1005,0 34 0 0,6
13.12.2018 08:00:00 10,5 8,6 9,2 11,3 13,3 8 4 23 12 Z 1005,1 13 0 0,6
13.12.2018 07:00:00 10,3 8,9 8,7 11,4 13,3 8 5 20 11 Z 1006,0 9 0 1,4
13.12.2018 06:00:00 9,2 8,3 8,6 11,4 13,3 4 2 9 5 ZO 1006,6 9 0 1,0
13.12.2018 05:00:00 9,6 7,9 8,6 11,4 13,4 6 4 10 6 ZZO 1007,3 10 0 1,0
13.12.2018 04:00:00 8,6 7,7 7,6 11,5 13,4 6 3 12 6 OZO 1007,7 41 0 0,0
13.12.2018 03:00:00 7,8 7,2 6,3 11,6 13,4 7 4 13 7 ZO 1008,3 30 0 0,0
13.12.2018 02:00:00 7,5 6,6 6,1 11,6 13,4 8 5 11 6 O 1009,4 29 0 0,0
13.12.2018 01:00:00 9,0 7,8 8,1 11,6 13,3 6 4 14 8 O 1010,9 32 0 0,0
13.12.2018 00:00:00 9,3 8,1 8,7 11,7 13,3 10 5 14 7 O 1011,4 29 0 0,0
12.12.2018 23:00:00 9,8 8,2 9,0 11,7 13,4 7 4 20 11 NO 1012,4 28 0 0,0
12.12.2018 22:00:00 9,5 8,4 9,1 11,8 13,4 7 4 15 8 OZO 1012,6 23 0 0,0
12.12.2018 21:00:00 9,9 8,8 9,3 11,8 13,4 6 4 10 6 OZO 1014,3 13 0 0,0
12.12.2018 20:00:00 10,3 8,7 9,0 11,8 13,4 8 4 10 5 ZO 1015,6 16 0 0,0
12.12.2018 19:00:00 10,7 8,8 9,0 11,8 13,4 0 0 8 4 N 1016,7 16 0 0,0
12.12.2018 18:00:00 11,3 9,4 9,6 11,8 13,4 4 2 5 3 ZO 1017,3 12 0 0,0
12.12.2018 17:00:00 12,0 9,6 11,5 11,7 13,4 3 1 5 3 ZW 1018,0 13 0 0,0
12.12.2018 16:00:00 12,0 9,4 10,8 11,6 13,4 0 0 16 9 N 1018,1 13 0 0,2
12.12.2018 15:00:00 12,4 9,8 12,3 11,6 13,4 4 2 12 7 W 1018,7 14 0 0,0
12.12.2018 14:00:00 12,7 10,2 13,4 11,5 13,4 6 3 14 8 WZW 1019,4 15 0 0,0
12.12.2018 13:00:00 12,6 11,0 13,1 11,4 13,4 7 4 14 8 ZW 1020,5 15 0 0,0
12.12.2018 12:00:00 11,9 10,6 11,1 11,4 13,5 7 4 16 9 ZW 1021,4 20 0 0,0
12.12.2018 11:00:00 11,2 10,1 10,8 11,3 13,4 8 4 16 9 WZW 1021,9 13 0 0,0
12.12.2018 10:00:00 11,5 10,7 10,5 11,2 13,5 11 6 26 14 ZW 1022,0 9 0 0,8
12.12.2018 09:00:00 12,3 9,7 10,6 11,2 13,5 13 7 22 12 NW 1022,0 17 0 0,2
12.12.2018 08:00:00 11,5 9,9 10,3 11,1 13,5 15 8 35 19 W 1021,8 6 0 0,8
12.12.2018 07:00:00 12,7 11,3 11,7 11,0 13,5 19 10 32 17 W 1021,6 14 0 0,0
12.12.2018 06:00:00 12,2 11,6 11,8 11,0 13,5 22 12 37 20 WNW 1021,3 10 0 0,2
12.12.2018 05:00:00 12,4 11,6 11,1 10,9 13,5 12 7 25 14 WZW 1021,4 13 0 0,4
12.12.2018 04:00:00 11,7 10,8 11,2 10,9 13,5 9 5 21 11 ZW 1021,8 6 0 0,2
12.12.2018 03:00:00 12,9 10,1 12,0 10,8 13,5 14 7 26 14 W 1022,0 19 0 0,0
12.12.2018 02:00:00 12,6 8,7 11,7 10,8 13,5 9 5 42 23 WZW 1021,9 29 0 0,0
12.12.2018 01:00:00 12,9 11,1 11,5 10,8 13,5 29 16 46 25 W 1022,1 18 0 0,0
12.12.2018 00:00:00 12,2 9,9 10,5 10,9 13,6 13 7 27 14 WZW 1021,9 20 0 0,0
11.12.2018 23:00:00 11,6 8,6 4,6 10,9 13,5 15 8 28 15 WZW 1021,6 32 0 0,0
11.12.2018 22:00:00 7,6 6,2 3,4 11,0 13,5 8 5 13 7 W 1021,2 13 0 0,0
11.12.2018 21:00:00 7,9 5,5 4,3 11,0 13,5 5 3 8 4 ZZO 1021,1 18 0 0,0
11.12.2018 20:00:00 8,3 5,9 5,4 11,1 13,6 4 2 9 5 OZO 1020,9 27 0 0,0
11.12.2018 19:00:00 8,5 5,8 5,9 11,1 13,6 7 4 13 7 O 1020,5 31 0 0,0
11.12.2018 18:00:00 9,6 6,5 6,2 11,1 13,6 8 4 13 7 O 1020,5 32 0 0,0
11.12.2018 17:00:00 10,2 6,2 9,0 11,1 13,6 11 6 18 10 O 1020,3 35 18 0,0
11.12.2018 16:00:00 12,4 6,0 13,2 11,0 13,6 11 6 19 11 O 1020,1 37 60 0,0
11.12.2018 15:00:00 12,5 5,9 12,4 10,9 13,6 9 5 27 15 OZO 1020,3 36 50 0,0
11.12.2018 14:00:00 11,1 6,0 11,6 10,9 13,6 19 10 39 21 O 1020,5 35 33 0,2
11.12.2018 13:00:00 10,9 5,8 10,9 10,9 13,6 23 12 36 20 O 1021,1 20 60 0,4
11.12.2018 12:00:00 9,2 6,1 9,7 10,9 13,6 21 12 35 19 O 1022,3 20 60 0,0
11.12.2018 11:00:00 7,7 6,0 7,5 10,9 13,6 18 10 27 15 O 1023,1 20 51 0,0
11.12.2018 10:00:00 6,0 5,1 4,6 11,0 13,6 15 8 21 11 O 1023,0 19 36 0,0
11.12.2018 09:00:00 4,9 4,3 3,8 11,1 13,6 15 8 19 11 ONO 1022,7 18 3 0,0
11.12.2018 08:00:00 4,6 4,0 3,7 11,3 13,6 13 7 16 9 ONO 1023,0 16 0 0,0
11.12.2018 07:00:00 4,6 4,0 3,5 11,4 13,6 13 7 19 11 O 1023,5 15 0 0,0
11.12.2018 06:00:00 5,1 4,5 3,5 11,5 13,6 12 7 18 10 ONO 1024,3 16 0 0,0
11.12.2018 05:00:00 5,6 5,0 2,9 11,6 13,6 10 6 17 9 ONO 1025,3 16 0 0,0
11.12.2018 04:00:00 5,2 4,6 3,0 11,7 13,6 6 4 11 6 O 1026,5 14 0 0,2
11.12.2018 03:00:00 5,3 4,6 3,5 11,9 13,6 8 4 12 6 O 1027,1 12 0 0,0
11.12.2018 02:00:00 6,8 5,9 3,9 12,0 13,6 9 5 15 8 ONO 1027,3 13 0 0,0
11.12.2018 01:00:00 7,0 5,9 3,8 12,1 13,6 6 3 9 5 NO 1027,9 14 0 0,0
11.12.2018 00:00:00 7,3 6,1 4,0 12,3 13,6 7 4 10 5 ONO 1028,5 14 0 0,0
10.12.2018 23:00:00 8,2 6,8 4,7 12,4 13,6 5 3 11 6 ONO 1029,0 13 0 0,0
10.12.2018 22:00:00 8,1 6,4 5,5 12,5 13,6 7 4 11 6 O 1029,5 12 0 0,0
10.12.2018 21:00:00 9,8 7,4 6,7 12,5 13,6 4 2 11 6 ONO 1030,0 13 0 0,0
10.12.2018 20:00:00 11,4 7,9 10,6 12,5 13,6 9 5 17 9 O 1030,5 12 0 0,0
10.12.2018 19:00:00 11,6 8,1 10,1 12,5 13,6 9 5 14 7 NNO 1030,8 16 0 0,0
10.12.2018 18:00:00 12,1 8,6 11,0 12,5 13,6 8 5 14 8 NNO 1030,8 8 0 0,0
10.12.2018 17:00:00 12,7 8,2 12,6 12,5 13,6 7 4 32 17 NO 1030,8 10 5 0,0
10.12.2018 16:00:00 13,8 7,3 13,5 12,4 13,6 8 4 13 7 N 1030,9 13 39 0,0
10.12.2018 15:00:00 13,2 6,8 13,5 12,3 13,6 8 4 17 9 NNO 1031,5 16 0 0,0
10.12.2018 14:00:00 14,3 7,3 16,3 12,2 13,6 4 2 12 6 O 1031,9 18 50 0,0
10.12.2018 13:00:00 13,9 7,2 16,5 12,0 13,6 4 2 12 7 NO 1032,7 20 55 0,0
10.12.2018 12:00:00 13,6 8,4 14,7 12,0 13,6 6 3 10 5 O 1033,6 17 60 0,0
10.12.2018 11:00:00 12,9 9,7 11,7 12,0 13,7 3 2 9 5 Z 1034,2 11 33 0,0
10.12.2018 10:00:00 10,9 9,7 10,0 12,0 13,6 7 4 9 5 ZZO 1034,3 9 6 0,0
10.12.2018 09:00:00 10,1 9,0 8,7 12,0 13,6 5 3 6 3 Z 1034,0 8 7 0,0
10.12.2018 08:00:00 10,2 8,8 9,4 12,0 13,6 4 2 10 5 ZZW 1033,8 8 0 0,0
10.12.2018 07:00:00 9,9 8,5 8,5 12,2 13,6 6 3 10 5 ZZW 1033,6 10 0 0,0
10.12.2018 06:00:00 9,9 8,7 7,4 12,3 13,6 4 2 8 5 Z 1033,7 9 0 0,0
10.12.2018 05:00:00 8,8 7,9 6,2 12,3 13,6 6 3 8 5 Z 1033,8 7 0 0,0
10.12.2018 04:00:00 9,9 8,7 7,4 12,4 13,6 5 3 8 4 Z 1034,1 7 0 0,0
10.12.2018 03:00:00 11,2 9,1 9,9 12,4 13,6 4 2 14 7 O 1034,5 6 0 0,0
10.12.2018 02:00:00 11,4 8,4 9,1 12,5 13,6 9 5 11 6 NW 1034,5 9 0 0,0
10.12.2018 01:00:00 12,1 9,1 10,1 12,5 13,6 8 5 18 10 WNW 1034,7 10 0 0,0
10.12.2018 00:00:00 12,7 9,5 12,1 12,5 13,6 11 6 23 12 NW 1034,6 10 0 0,0
09.12.2018 23:00:00 12,7 9,9 10,9 12,5 13,6 12 7 18 10 WNW 1034,4 8 0 0,0
09.12.2018 22:00:00 12,4 10,1 11,0 12,5 13,6 10 6 26 14 WNW 1034,4 8 0 0,0
09.12.2018 21:00:00 12,0 9,9 11,1 12,6 13,7 17 9 29 16 NW 1034,0 9 0 0,0
09.12.2018 20:00:00 13,1 10,1 12,2 12,6 13,7 18 10 34 18 WNW 1033,6 9 0 0,0
09.12.2018 19:00:00 12,7 9,5 11,7 12,6 13,6 21 11 33 18 WNW 1032,7 10 0 0,0
09.12.2018 18:00:00 12,8 9,6 11,5 12,6 13,6 21 11 41 22 WNW 1032,5 8 0 0,0
09.12.2018 17:00:00 13,6 9,6 13,2 12,6 13,7 22 12 42 23 NW 1031,8 10 0 0,0
09.12.2018 16:00:00 13,6 8,0 13,3 12,5 13,6 29 15 54 29 WNW 1031,3 13 7 0,0
09.12.2018 15:00:00 14,3 10,5 14,2 12,5 13,7 33 18 48 26 WNW 1030,8 9 5 0,0
09.12.2018 14:00:00 14,4 10,6 14,2 12,5 13,7 31 17 49 27 W 1030,9 9 3 0,0
09.12.2018 13:00:00 13,9 10,7 13,4 12,4 13,6 30 16 53 29 WNW 1031,1 8 0 0,0
09.12.2018 12:00:00 13,9 10,3 13,7 12,4 13,7 32 18 57 31 W 1031,3 9 0 0,0
09.12.2018 11:00:00 14,0 9,6 13,3 12,4 13,7 39 21 59 32 WNW 1031,3 11 0 0,0
09.12.2018 10:00:00 13,9 10,5 13,5 12,4 13,6 30 16 49 26 WNW 1030,6 11 0 0,0
09.12.2018 09:00:00 13,9 10,7 13,3 12,4 13,7 28 15 46 25 WNW 1030,2 11 0 0,0
09.12.2018 08:00:00 13,9 10,7 13,3 12,3 13,7 31 17 50 27 WNW 1029,7 12 0 0,0
09.12.2018 07:00:00 13,9 11,2 12,9 12,3 13,7 27 15 51 28 WNW 1029,2 13 0 0,0
09.12.2018 06:00:00 14,1 11,4 13,0 12,2 13,7 31 17 48 26 W 1029,1 16 0 0,0
09.12.2018 05:00:00 13,9 12,3 12,8 12,2 13,7 22 12 46 25 WNW 1029,0 12 0 0,2
09.12.2018 04:00:00 14,2 12,6 12,7 12,2 13,7 27 15 40 22 W 1028,7 13 0 0,0
09.12.2018 03:00:00 13,4 12,5 11,9 12,1 13,7 19 10 31 17 W 1028,4 10 0 0,2
09.12.2018 02:00:00 12,3 11,5 11,9 12,0 13,6 13 7 40 22 ZW 1028,3 3,3 0 0,2
09.12.2018 01:00:00 13,6 11,3 12,4 12,1 13,7 26 14 48 26 W 1028,8 12 0 0,0
09.12.2018 00:00:00 14,2 9,2 12,5 12,1 13,7 12 6 39 21 WZW 1028,6 13 0 0,0
08.12.2018 23:00:00 13,0 8,7 11,7 12,1 13,7 11 6 19 10 W 1028,2 9 0 0,0
08.12.2018 22:00:00 12,1 8,6 10,1 12,2 13,7 8 5 16 9 WZW 1027,8 8 0 0,0
08.12.2018 21:00:00 11,6 8,1 7,8 12,2 13,7 8 4 13 7 WZW 1027,6 13 0 0,0
08.12.2018 20:00:00 9,7 7,8 6,9 12,3 13,7 8 4 15 8 ZW 1027,7 8 0 0,0
08.12.2018 19:00:00 10,7 8,3 5,6 12,3 13,7 6 3 9 5 WZW 1027,9 6 0 0,0
08.12.2018 18:00:00 11,2 7,7 6,2 12,4 13,7 2 1 6 3 WNW 1027,6 6 4 0,0
08.12.2018 17:00:00 13,3 7,3 12,4 12,4 13,7 3 1 12 6 W 1027,8 14 41 0,0
08.12.2018 16:00:00 13,5 7,3 13,1 12,3 13,7 8 4 29 15 W 1028,2 20 41 0,0
08.12.2018 15:00:00 14,0 7,1 15,7 12,3 13,7 18 10 32 17 W 1029,3 19 60 0,0
08.12.2018 14:00:00 13,9 7,4 15,2 12,2 13,7 16 8 40 22 WZW 1029,7 15 60 0,0
08.12.2018 13:00:00 14,1 8,3 12,9 12,2 13,7 15 8 37 20 WZW 1030,2 14 24 0,0
08.12.2018 12:00:00 12,7 8,6 12,6 12,2 13,7 14 8 32 17 WZW 1030,7 16 7 0,0
08.12.2018 11:00:00 12,3 8,8 11,6 12,2 13,7 10 6 26 14 WZW 1030,6 14 4 0,0

tt = temperatuur
td = dauwpunt
tt 5cm = temperatuur 5cm
tt -20cm = temperatuur -20cm
tt -100cm = temperatuur -100cm
ff = windsnelheid
fx = windstoten
dd = windrichting
ppp = luchtdruk
vv = zicht
sd = Zonneschijnduur
rr = neerslag

Weerstations in de omgeving